Regional Weather Roundup
Issued by NWS

Home | Current Version | Previous Version | Text Only | Print | Product List | Glossary On
Versions: 1 2 3 4 5 6 7 8 9 10 11 12 13 14 15 16 17 18 19 20 21 22 23 24 25 26 27 28 29 30 31 32 33 34 35 36 37 38 39 40 41 42 43 44 45 46 47 48 49 50
000
ASUS43 KFSD 291002
RWRSD

WEATHER ROUNDUP FOR SOUTH DAKOTA
NATIONAL WEATHER SERVICE SIOUX FALLS SD
500 AM CDT SUN MAY 29 2016

NOTE: "FAIR" INDICATES FEW OR NO CLOUDS BELOW 12,000 FEET WITH NO
SIGNIFICANT WEATHER AND/OR OBSTRUCTIONS TO VISIBILITY.


SDZ001>005-009-010-012>017-291100-
NORTHWEST AND NORTH CENTRAL SOUTH DAKOTA

CITY           SKY/WX    TMP DP  RH WIND       PRES   REMARKS
BUFFALO          N/A     48  41  76 W6        29.98S
FAITH            N/A     51  46  83 W6        30.02S
MOBRIDGE       CLEAR     52  49  89 NW7       29.97R
$$

SDZ012>016-024>037-041>051-057-063-072>074-291100-
SOUTHWEST AND SOUTH CENTRAL SOUTH DAKOTA

CITY           SKY/WX    TMP DP  RH WIND       PRES   REMARKS
RAPID CTY ARPT CLEAR     44  42  93 W5        30.06S
PIERRE         CLEAR     52  50  93 CALM      29.99R
CUSTER         CLEAR     38  36  92 CALM      30.13S
ELLSWORTH AFB  CLEAR     45  44  95 NW7       30.06R
PHILIP         CLEAR     49  47  93 W9        30.02S
PINE RIDGE     CLEAR     38  36  92 CALM      30.07S
WINNER         FAIR      56  50  80 SW7       30.01R
$$

SDZ004>011-016>023-039-040-291100-
NORTHEAST SOUTH DAKOTA

CITY           SKY/WX    TMP DP  RH WIND       PRES   REMARKS
ABERDEEN       PTCLDY    57  52  83 W9        29.94R
WATERTOWN      PTCLDY    59  55  87 W7        29.94R
BROOKINGS      CLOUDY    59  57  93 SW5       29.95R
SISSETON         N/A     56  54  93 W6        29.89S
$$

SDZ017-020-022-023-036>040-048>070-291100-
SOUTHEAST SOUTH DAKOTA

CITY           SKY/WX    TMP DP  RH WIND       PRES   REMARKS
SIOUX FALLS    CLOUDY    59  56  89 W3        29.97R
HURON          CLEAR     54  52  93 W5        29.96R
MITCHELL       CLEAR     59  57  93 W6        29.97S
YANKTON        PTCLDY    57  54  88 CALM      29.98R
$$

ABBREVIATIONS USED IN REMARKS
   TC - TEMPERATURE IN CELSIUS
  WCI - WIND CHILL INDEX
   HX - HEAT INDEX
  VSB - VISIBILITY





USA.gov is the U.S. government's official web portal to all federal, state and local government web resources and services.